Vertical_Velocity
-1 -1 -2 -1 0 -0 0 2 1 -6 2 -1 3 -2 -2 -1 -3 -1 -1 2 -1 1 0 1 1 0 -1 -1 -1 -2 -2 -0 1 -0 2 1 -1 2 4 -6 3 2 0 -4 -6
-1 -1 -1 -1 -2 -0 -1 0 2 -3 -2 0 -1 2 -3 -3 0 -1 -1 1 -0 0 3 1 3 -1 0 -2 0 -0 -1 1 0 0 -0 0 -2 -3 -2 3 3 -2 6 2 -3
-1 -2 -2 -1 -1 -2 -0 -0 1 1 -3 -0 -1 -1 1 -2 -2 2 3 -0 0 -0 1 -1 0 -1 -0 -0 -1 0 1 -0 -0 1 -1 -1 1 0 -2 3 -4 -7 -3 1 -2
-1 -1 -1 -1 -1 -1 -1 -1 -0 1 -1 -3 0 1 -2 1 2 3 -1 -2 -3 -2 -1 0 -0 -1 -1 -1 -0 1 -0 -0 0 -0 -0 -0 -0 1 -0 -2 -0 -2 3 -6 -4
-1 -0 -1 -1 -0 -1 -1 -1 -1 0 0 -1 -2 1 -1 -1 -0 3 0 0 1 2 -2 -3 -2 -0 1 1 0 1 1 0 -0 2 -1 -0 0 -0 2 -2 3 -1 2 -0 1
0 -1 -0 -2 -1 -1 -1 -1 -1 0 -0 -1 -2 -1 0 1 1 -1 1 -0 -0 0 0 -2 -2 -0 1 -0 1 1 2 1 0 0 1 -0 1 -1 1 1 3 0 -0 1 -2
0 0 -1 -1 -0 -2 -1 -1 -1 -2 -0 -0 -2 -2 -1 2 -0 1 1 0 -1 -2 -2 1 2 1 0 -2 1 -0 -1 0 1 -0 0 0 2 1 -4 2 -1 2 1 1 -0
-0 -0 -1 -0 -1 -1 -1 -1 -1 -1 -1 -0 -1 -3 -0 -1 -1 1 -0 2 2 -1 -0 0 -1 -1 1 0 -1 -1 -3 -2 1 1 1 2 -0 2 2 -4 1 1 0 1 -3
-1 0 -1 -1 -0 -0 -1 -1 -1 -0 0 -0 -0 -1 1 -0 -1 -1 0 2 1 -0 1 2 0 -0 -0 -0 -3 -3 1 -1 -2 -1 -0 3 -1 3 2 4 0 -2 -0 1 -1
-1 -1 -0 -0 -0 0 -0 0 0 -0 -0 -3 -0 1 2 0 -0 0 1 1 1 2 1 0 -1 0 -1 -3 2 0 -1 -2 1 2 1 1 -4 -0 0 1 -3 -2 1 -1 1
0 -0 0 1 -1 0 -0 -2 0 -1 -1 -0 1 -0 -0 0 0 -1 1 1 0 -0 0 -1 1 0 0 1 0 1 1 0 -1 1 2 -1 -1 -3 -1 4 2 -0 0 -2 -6
-0 -1 0 0 0 0 0 0 -1 -1 -1 -1 -1 -3 -1 1 2 2 1 1 -0 0 0 2 -0 -1 0 0 1 0 0 0 -1 0 3 -1 -5 -1 0 -7 -6 -2 -0 -3 2
-2 -1 -2 -0 -0 -0 0 -1 -0 -0 1 -1 0 -1 1 0 -1 -1 2 -0 -1 -0 -0 -0 0 0 1 -0 0 0 0 0 2 -0 1 1 -1 -1 0 2 3 -0 4 3 -4
-1 -1 -0 -1 -0 -1 -0 -1 -0 -1 -0 1 0 0 -0 1 1 0 2 -2 0 -1 -1 -0 -0 0 0 0 1 -0 1 0 0 2 3 4 -4 -1 -1 -1 1 -1 -0 -1 -2
-1 1 0 1 1 0 0 -1 -1 -0 3 7 2 2 1 1 1 4 0 3 -1 -0 4 -0 1 1 1 -1 1 4 -1 0 0 0 3 1 4 -0 -0 -1 -1 -2 -2 1 -8
-1 -0 1 0 1 -0 -0 0 -1 7 1 2 1 1 2 0 1 1 1 1 -1 -1 -0 -2 -0 2 -0 1 0 1 0 -1 -0 0 3 2 5 1 1 4 -5 -3 -2 2 -0
0 -0 -0 -0 2 -0 0 2 3 2 3 4 0 1 -1 1 3 0 1 3 -0 2 1 -0 -0 -0 0 1 0 0 1 -1 1 -1 2 0 2 -2 -0 -0 3 -0 -4 1 2
-0 -1 -0 2 0 1 -0 0 4 -1 -2 1 -1 2 -2 -2 1 1 1 2 1 -0 -0 -1 9 1 2 1 -1 1 2 2 2 1 1 1 1 0 -0 0 1 2 2 0 1
-0 2 0 -0 1 0 2 2 -3 -2 -1 -1 3 1 2 1 -1 0 -1 -2 -2 -2 1 -0 4 1 -1 0 5 4 1 4 -2 1 3 2 -4 -2 -1 -3 -2 -1 -0 0 3
0 2 1 1 1 2 -0 -2 -0 -0 0 1 -2 -1 -1 1 2 2 1 -2 -1 -2 0 1 2 1 3 2 1 2 1 6 1 1 -1 -0 -0 -2 -7 -4 -2 -3 -0 1 2
1 2 1 3 4 2 -0 -3 -0 -1 1 0 -1 -0 -2 -2 -1 -0 -3 2 0 2 1 -1 1 6 3 -0 0 4 2 -1 0 3 2 0 -1 -1 -0 1 1 1 1 -0 2
0 2 2 3 0 -1 -0 -2 1 -1 1 -0 1 -1 -2 -0 -0 1 -2 0 -0 -4 -1 -0 -1 0 2 1 1 1 0 -0 2 2 1 2 -4 0 0 0 1 -0 -1 1 2
1 0 4 -1 0 0 -1 -1 0 0 -1 0 0 -0 -0 -1 -1 -0 0 1 0 -0 -3 -3 1 1 9 8 4 0 1 -0 -0 1 -1 2 -1 -0 -1 -1 -1 -0 1 3 4
1 1 0 -1 -1 -1 0 -0 -1 -0 -1 0 0 -0 -0 0 0 -0 1 1 1 0 -0 -2 0 -2 -8 -5 -3 1 1 0 0 2 0 -2 -2 -3 -2 -0 -3 -1 1 1 3
0 0 -1 0 1 0 1 1 -0 -1 -0 0 2 -0 -2 -1 1 0 0 3 1 0 -0 2 -1 -0 1 0 0 -2 -2 0 0 -1 3 1 -0 -3 1 2 -1 0 -1 -1 3
1 2 0 0 -0 0 1 -2 -0 -1 3 0 2 0 -0 -2 -3 -2 -3 -1 -3 3 -0 0 2 -0 1 0 -0 0 -0 0 0 1 1 1 -2 0 -2 0 -1 -1 2 1 1
-0 0 0 -0 1 1 -2 -2 -2 1 -2 -0 -0 -1 1 -0 -1 1 1 -1 -1 -2 0 -1 -2 1 0 0 1 5 -7 -1 -0 0 -0 2 -2 -0 -4 -1 -0 -1 2 1 0
Height
1528 1527 1527 1526 1526 1525 1525 1526 1527 1526 1525 1526 1527 1526 1526 1528 1528 1528 1529 1529 1529 1528 1528 1528 1528 1527 1526 1526 1526 1526 1526 1532 1531 1534 1533 1533 1534 1537 1538 1540 1544 1544 1545 1548 1552
1528 1528 1527 1526 1526 1525 1525 1525 1526 1527 1525 1526 1526 1526 1527 1528 1528 1529 1530 1529 1529 1529 1529 1528 1527 1525 1525 1526 1527 1526 1528 1530 1526 1528 1530 1533 1532 1536 1539 1540 1545 1545 1547 1550 1554
1528 1528 1527 1526 1526 1525 1524 1525 1525 1526 1526 1525 1526 1526 1527 1528 1529 1529 1529 1530 1529 1529 1529 1528 1525 1524 1525 1526 1527 1526 1526 1526 1526 1527 1529 1532 1533 1535 1538 1541 1541 1544 1547 1551 1555
1528 1527 1527 1526 1526 1525 1524 1524 1524 1525 1526 1526 1526 1527 1528 1529 1532 1529 1529 1530 1531 1531 1531 1529 1527 1526 1525 1526 1527 1526 1526 1526 1526 1527 1528 1531 1533 1534 1537 1537 1539 1543 1545 1550 1554
1527 1527 1527 1526 1525 1525 1524 1523 1524 1524 1525 1526 1526 1527 1528 1529 1530 1529 1529 1530 1531 1532 1532 1530 1529 1530 1530 1529 1526 1526 1526 1526 1527 1528 1528 1530 1532 1534 1536 1537 1538 1542 1547 1550 1553
1527 1526 1526 1525 1525 1524 1524 1523 1523 1524 1524 1525 1526 1526 1528 1529 1529 1529 1529 1530 1531 1532 1533 1533 1533 1533 1532 1530 1529 1526 1525 1525 1527 1527 1528 1530 1531 1534 1537 1537 1539 1541 1546 1549 1553
1527 1526 1525 1525 1524 1524 1524 1523 1523 1523 1524 1525 1526 1527 1528 1530 1529 1529 1530 1531 1533 1534 1534 1534 1535 1536 1534 1530 1529 1526 1523 1524 1527 1528 1529 1529 1531 1530 1535 1539 1540 1542 1545 1549 1552
1526 1525 1525 1524 1524 1523 1523 1523 1523 1523 1524 1525 1525 1527 1528 1529 1530 1531 1531 1532 1533 1534 1535 1535 1535 1535 1534 1531 1529 1527 1524 1529 1527 1529 1530 1530 1532 1531 1534 1537 1542 1545 1545 1548 1551
1525 1525 1524 1524 1523 1523 1522 1522 1523 1523 1523 1525 1526 1527 1528 1528 1530 1531 1532 1533 1533 1534 1535 1535 1535 1536 1534 1531 1530 1533 1538 1536 1529 1529 1530 1531 1531 1531 1534 1536 1540 1542 1544 1545 1551
1524 1524 1524 1523 1523 1522 1521 1522 1522 1523 1524 1525 1526 1529 1527 1527 1528 1530 1531 1532 1534 1534 1535 1536 1536 1535 1536 1533 1550 1545 1542 1535 1535 1530 1531 1532 1529 1530 1532 1535 1537 1541 1543 1547 1550
1523 1523 1522 1522 1522 1522 1522 1523 1527 1527 1524 1523 1524 1524 1524 1526 1527 1528 1530 1532 1533 1534 1534 1537 1538 1542 1540 1538 1538 1540 1544 1543 1532 1530 1531 1529 1526 1524 1527 1532 1534 1536 1539 1543 1545
1522 1521 1521 1521 1522 1522 1522 1523 1523 1525 1524 1522 1522 1523 1523 1524 1526 1527 1530 1533 1533 1533 1537 1538 1542 1538 1539 1538 1538 1541 1540 1538 1532 1531 1533 1530 1524 1520 1522 1522 1524 1529 1533 1538 1543
1521 1521 1520 1521 1521 1523 1523 1524 1523 1523 1524 1522 1521 1522 1523 1524 1524 1526 1529 1529 1531 1535 1537 1540 1538 1539 1537 1536 1537 1538 1535 1537 1540 1534 1534 1534 1527 1521 1519 1521 1523 1524 1528 1534 1536
1519 1520 1520 1521 1524 1523 1523 1523 1523 1523 1524 1521 1520 1521 1522 1523 1525 1525 1527 1530 1532 1534 1538 1538 1536 1536 1535 1535 1533 1535 1534 1535 1536 1538 1545 1537 1542 1524 1522 1518 1519 1521 1523 1527 1530
1518 1518 1519 1520 1521 1522 1525 1523 1523 1524 1537 1519 1519 1519 1520 1524 1524 1525 1527 1529 1530 1533 1537 1537 1535 1536 1535 1530 1530 1534 1534 1537 1538 1539 1541 1538 1539 1521 1522 1514 1513 1515 1514 1519 1522
1516 1516 1517 1518 1520 1522 1522 1523 1524 1529 1534 1518 1516 1518 1520 1522 1523 1525 1527 1529 1532 1534 1536 1534 1535 1534 1529 1531 1532 1535 1535 1540 1543 1542 1548 1546 1544 1528 1522 1520 1510 1508 1509 1510 1513
1514 1514 1515 1517 1519 1521 1522 1524 1529 1532 1513 1518 1515 1516 1518 1521 1523 1524 1526 1529 1532 1543 1540 1534 1532 1531 1531 1531 1533 1533 1535 1550 1554 1551 1552 1551 1549 1525 1521 1520 1517 1510 1503 1502 1505
1511 1512 1513 1515 1517 1520 1522 1525 1536 1513 1512 1509 1511 1515 1518 1519 1523 1525 1527 1531 1533 1533 1539 1538 1543 1530 1530 1530 1532 1539 1535 1548 1573 1564 1552 1551 1543 1521 1520 1520 1515 1509 1501 1497 1500
1509 1509 1511 1513 1515 1518 1522 1528 1515 1510 1506 1507 1511 1515 1519 1518 1520 1523 1525 1526 1525 1528 1534 1537 1537 1531 1531 1531 1533 1540 1541 1545 1555 1568 1561 1550 1532 1517 1516 1513 1510 1507 1504 1503 1504
1507 1508 1509 1511 1513 1517 1520 1524 1513 1508 1506 1506 1509 1510 1517 1518 1519 1522 1525 1520 1522 1523 1525 1528 1538 1532 1532 1532 1534 1532 1543 1545 1548 1565 1566 1548 1549 1535 1520 1515 1512 1508 1508 1507 1508
1506 1507 1508 1509 1513 1516 1518 1516 1510 1506 1506 1505 1505 1510 1510 1514 1515 1519 1520 1518 1519 1524 1526 1527 1528 1537 1532 1535 1536 1539 1540 1552 1552 1557 1557 1556 1542 1523 1524 1520 1517 1513 1513 1512 1512
1506 1506 1507 1509 1514 1517 1515 1512 1509 1504 1503 1502 1502 1502 1504 1512 1516 1517 1515 1518 1517 1519 1524 1526 1527 1539 1542 1539 1540 1538 1540 1538 1546 1559 1564 1564 1542 1525 1524 1521 1519 1517 1517 1515 1513
1505 1506 1508 1509 1511 1512 1512 1510 1508 1503 1501 1500 1498 1498 1501 1507 1515 1515 1516 1516 1516 1516 1519 1522 1533 1546 1546 1541 1537 1538 1541 1544 1545 1546 1554 1552 1539 1521 1521 1521 1520 1519 1518 1516 1516
1505 1505 1509 1510 1509 1508 1508 1507 1506 1503 1501 1500 1497 1498 1501 1507 1511 1513 1513 1515 1515 1516 1517 1519 1528 1526 1537 1533 1532 1541 1538 1541 1538 1545 1549 1543 1533 1521 1521 1521 1521 1520 1519 1518 1519
1503 1503 1503 1505 1506 1507 1508 1508 1506 1504 1501 1498 1496 1496 1497 1506 1509 1511 1512 1513 1515 1517 1518 1518 1526 1532 1534 1533 1534 1531 1533 1536 1535 1537 1542 1538 1541 1528 1527 1526 1522 1520 1519 1518 1519
1503 1503 1503 1503 1504 1506 1508 1505 1504 1501 1501 1496 1496 1495 1497 1498 1499 1508 1508 1510 1509 1516 1518 1521 1533 1532 1538 1537 1537 1537 1534 1533 1532 1536 1535 1534 1531 1526 1527 1525 1523 1520 1518 1519 1520
1503 1502 1502 1503 1503 1503 1502 1500 1500 1500 1495 1495 1496 1496 1499 1499 1500 1502 1505 1507 1508 1511 1518 1521 1528 1533 1541 1542 1539 1545 1530 1532 1530 1530 1527 1532 1525 1528 1525 1525 1524 1520 1520 1520 1520